WetterOnline ( https://www.wetteronline.de )

Wetter aktuell Hohen Neuendorf

Aktuelles Wetter: Berlin-Dahlem (70m)

6-stündlich | Neueste Meldungen
Ortszeit Temperatur Wetter
Sa, 25.06. 8:00 21.0° C wolkig
Sa, 25.06. 2:00 20.5° C wolkig
Fr, 24.06. 20:00 25.3° C wolkig
Fr, 24.06. 14:00 30.4° C leicht bewölkt
Fr, 24.06. 8:00 21.4° C wolkenlos
Fr, 24.06. 2:00 20.2° C wolkenlos
Do, 23.06. 20:00 27.8° C wolkenlos
Do, 23.06. 14:00 28.5° C fast wolkenlos
Ortszeit Temperatur Wetter
Sa, 25.06. 13:00 25.6° C wolkig
Sa, 25.06. 12:00 25.3° C wolkig
Sa, 25.06. 11:00 24.8° C wolkig
Sa, 25.06. 10:00 24.3° C leicht bewölkt
Sa, 25.06. 9:00 22.0° C wolkig
Sa, 25.06. 8:00 21.0° C wolkig
Ortszeit Relative Feuchte Sichtweite
Sa, 25.06. 8:00 81% 20 km
Sa, 25.06. 2:00 78% 30 km
Fr, 24.06. 20:00 47% 30 km
Fr, 24.06. 14:00 28% 55 km
Fr, 24.06. 8:00 60% 50 km
Fr, 24.06. 2:00 60% 50 km
Do, 23.06. 20:00 34% 55 km
Do, 23.06. 14:00 35% 55 km
Ortszeit Relative Feuchte Sichtweite
Sa, 25.06. 13:00 58% 25 km
Sa, 25.06. 12:00 59% 25 km
Sa, 25.06. 11:00 59% 30 km
Sa, 25.06. 10:00 63% 25 km
Sa, 25.06. 9:00 77% 20 km
Sa, 25.06. 8:00 81% 20 km
Ortszeit Niederschlagsmenge Niederschlagsart
Sa, 25.06. 8:00 0.1 l/m2 in 12 Std. -
Sa, 25.06. 2:00 0.1 l/m2 in 6 Std. Regen
Fr, 24.06. 20:00 0.1 l/m2 in 12 Std. Regen
Fr, 24.06. 14:00 0.0 l/m2 in 6 Std. -
Fr, 24.06. 8:00 0.0 l/m2 in 12 Std. -
Fr, 24.06. 2:00 0.0 l/m2 in 6 Std. -
Do, 23.06. 20:00 0.0 l/m2 in 12 Std. -
Do, 23.06. 14:00 0.0 l/m2 in 6 Std. -
Ortszeit Niederschlagsmenge Niederschlagsart
Sa, 25.06. 13:00 keine Meldung -
Sa, 25.06. 12:00 keine Meldung -
Sa, 25.06. 11:00 keine Meldung -
Sa, 25.06. 10:00 keine Meldung -
Sa, 25.06. 9:00 keine Meldung -
Sa, 25.06. 8:00 keine Meldung -
Ortszeit Stärke Spitze Richtung
km/h Bft. km/h Grad Sektor
Sa, 25.06. 8:00 4 1 - 210° SW
Sa, 25.06. 2:00 11 2 - 130° SO
Fr, 24.06. 20:00 7 2 - 190° S
Fr, 24.06. 14:00 22 4 - 140° SO
Fr, 24.06. 8:00 14 3 - 140° SO
Fr, 24.06. 2:00 14 3 - 90° O
Do, 23.06. 20:00 11 2 - 90° O
Do, 23.06. 14:00 7 2 - 80° O
Ortszeit Stärke Spitze Richtung
km/h Bft. km/h Grad Sektor
Sa, 25.06. 13:00 4 1 - 260° W
Sa, 25.06. 12:00 7 2 - 290° W
Sa, 25.06. 11:00 4 1 - 260° W
Sa, 25.06. 10:00 7 2 - 50° NO
Sa, 25.06. 9:00 4 1 - 110° O
Sa, 25.06. 8:00 4 1 - 210° SW
Ortszeit Untergrenze Bedeckung Gattung
total tief tief mittel hoch
Sa, 25.06. 8:00 4500 m 7/8 4/8 - Ac Cs
Sa, 25.06. 2:00 3600 m 7/8 7/8 - As -
Fr, 24.06. 20:00 2700 m 7/8 2/8 Cb As -
Fr, 24.06. 14:00 2400 m 6/8 1/8 Cu - Ci
Fr, 24.06. 8:00 - 0/8 0/8 - - -
Fr, 24.06. 2:00 - 0/8 0/8 - - -
Do, 23.06. 20:00 - 0/8 0/8 - - -
Do, 23.06. 14:00 9000 m 1/8 0/8 - - Ci
Ortszeit Bedeckungsgrad in Achtel und Wolkenuntergrenze
Sa, 25.06. 13:00 5(1080m) 3(3900m)
Sa, 25.06. 12:00 4(1080m) 7(3900m)
Sa, 25.06. 11:00 3(990m) 7(4800m)
Sa, 25.06. 10:00 1(780m) 6(4800m)
Sa, 25.06. 9:00 1(480m) 5(4500m)
Sa, 25.06. 8:00 4(4500m) 3(7200m)
Ortszeit Luftdruck NN (hPa) Tendenz (hPa in 3 Std.)
Sa, 25.06. 8:00 1011 + 1,9
Sa, 25.06. 2:00 1009 + 0,5
Fr, 24.06. 20:00 1007 + 1,3
Fr, 24.06. 14:00 1007 - 1,7
Fr, 24.06. 8:00 1011 - 0,4
Fr, 24.06. 2:00 1012 - 0,7
Do, 23.06. 20:00 1012 - 0,6
Do, 23.06. 14:00 1014 - 1,0
Ortszeit Luftdruck NN (hPa) Tendenz (hPa in 3 Std.)
Sa, 25.06. 13:00 1011 + 0,5
Sa, 25.06. 12:00 1011 + 0,3
Sa, 25.06. 11:00 1011 + 0,4
Sa, 25.06. 10:00 1011 + 0,6
Sa, 25.06. 9:00 1011 + 1,3
Sa, 25.06. 8:00 1011 + 1,9
Ortszeit Schneehöhe (cm)
Sa, 25.06. 8:00 0
Sa, 25.06. 2:00 0
Fr, 24.06. 20:00 0
Fr, 24.06. 14:00 0
Fr, 24.06. 8:00 0
Fr, 24.06. 2:00 0
Do, 23.06. 20:00 0
Do, 23.06. 14:00 0
Ortszeit Schneehöhe (cm)
Sa, 25.06. 13:00 -
Sa, 25.06. 12:00 -
Sa, 25.06. 11:00 -
Sa, 25.06. 10:00 -
Sa, 25.06. 9:00 -
Sa, 25.06. 8:00 0
Link zu dieser Seite / Seite empfehlen

Das Wetter in ...